Time,TemperatureF,DewpointF,PressureIn,WindDirection,WindDirectionDegrees,WindSpeedMPH,WindSpeedGustMPH,Humidity,HourlyPrecipIn,Conditions,Clouds,dailyrainin,SolarRadiationWatts/m^2,SoftwareType,DateUTC
2013-01-31 00:00:00,26.0,26.0,-100.00,West,270,17.0,-999.0,99,-99.99,,,-99.99,0.000000,,2013-01-31 05:00:00,
2013-01-31 00:42:00,26.0,26.0,-100.00,West,270,17.0,-999.0,99,-99.99,,,-99.99,0.000000,,2013-01-31 05:42:00,
2013-01-31 00:52:00,26.0,26.0,-100.00,West,270,17.0,-999.0,99,-99.99,,,-99.99,0.000000,,2013-01-31 05:52:00,
2013-01-31 08:00:00,18.0,14.0,-100.00,WSW,247,13.0,-999.0,86,-99.99,,,-99.99,0.000000,,2013-01-31 13:00:00,
2013-01-31 09:00:00,18.0,14.0,-100.00,WSW,247,13.0,-999.0,84,-99.99,,,-99.99,12.760000,,2013-01-31 14:00:00,
2013-01-31 09:42:00,18.0,14.0,-100.00,WSW,247,13.0,-999.0,84,-99.99,,,-99.99,12.760000,,2013-01-31 14:42:00,
2013-01-31 09:52:00,18.0,14.0,-100.00,WSW,247,13.0,-999.0,84,-99.99,,,-99.99,12.760000,,2013-01-31 14:52:00,
2013-01-31 10:00:00,18.0,12.0,-100.00,WSW,247,15.0,-999.0,77,-99.99,,,-99.99,51.040001,,2013-01-31 15:00:00,
2013-01-31 10:42:00,18.0,12.0,-100.00,WSW,247,15.0,-999.0,77,-99.99,,,-99.99,51.040001,,2013-01-31 15:42:00,
2013-01-31 10:52:00,18.0,12.0,-100.00,WSW,247,15.0,-999.0,77,-99.99,,,-99.99,51.040001,,2013-01-31 15:52:00,
2013-01-31 11:00:00,18.0,14.0,-100.00,WSW,247,12.0,-999.0,84,-99.99,,,-99.99,82.360001,,2013-01-31 16:00:00,
2013-01-31 11:42:00,18.0,14.0,-100.00,WSW,247,12.0,-999.0,84,-99.99,,,-99.99,82.360001,,2013-01-31 16:42:00,
2013-01-31 11:52:00,18.0,14.0,-100.00,WSW,247,12.0,-999.0,84,-99.99,,,-99.99,82.360001,,2013-01-31 16:52:00,
2013-01-31 12:00:00,17.0,16.0,-100.00,WSW,247,12.0,-999.0,95,-99.99,,,-99.99,138.039993,,2013-01-31 17:00:00,
2013-01-31 12:44:00,17.0,16.0,-100.00,WSW,247,12.0,-999.0,95,-99.99,,,-99.99,138.039993,,2013-01-31 17:44:00,
2013-01-31 12:53:00,17.0,16.0,-100.00,WSW,247,12.0,-999.0,95,-99.99,,,-99.99,138.039993,,2013-01-31 17:53:00,
2013-01-31 14:00:00,17.0,13.0,-100.00,WSW,247,11.0,-999.0,83,-99.99,,,-99.99,236.639999,,2013-01-31 19:00:00,
2013-01-31 14:43:00,17.0,13.0,-100.00,WSW,247,11.0,-999.0,83,-99.99,,,-99.99,236.639999,,2013-01-31 19:43:00,
2013-01-31 14:52:00,17.0,13.0,-100.00,WSW,247,11.0,-999.0,83,-99.99,,,-99.99,236.639999,,2013-01-31 19:52:00,
2013-01-31 16:00:00,16.0,15.0,-100.00,WSW,247,9.0,-999.0,96,-99.99,,,-99.99,106.720001,,2013-01-31 21:00:00,
2013-01-31 16:42:00,16.0,15.0,-100.00,WSW,247,9.0,-999.0,96,-99.99,,,-99.99,106.720001,,2013-01-31 21:42:00,
2013-01-31 16:52:00,16.0,15.0,-100.00,WSW,247,9.0,-999.0,96,-99.99,,,-99.99,106.720001,,2013-01-31 21:52:00,
2013-01-31 17:00:00,15.0,14.0,-100.00,WSW,247,9.0,-999.0,96,-99.99,,,-99.99,59.160000,,2013-01-31 22:00:00,
2013-01-31 17:33:00,15.0,14.0,-100.00,WSW,247,9.0,-999.0,96,-99.99,,,-99.99,59.160000,,2013-01-31 22:33:00,
2013-01-31 17:42:00,15.0,14.0,-100.00,WSW,247,9.0,-999.0,96,-99.99,,,-99.99,59.160000,,2013-01-31 22:42:00,
2013-01-31 17:52:00,15.0,14.0,-100.00,WSW,247,9.0,-999.0,96,-99.99,,,-99.99,59.160000,,2013-01-31 22:52:00,
2013-01-31 18:00:00,15.0,13.0,-100.00,WSW,247,9.0,-999.0,94,-99.99,,,-99.99,13.920000,,2013-01-31 23:00:00,
2013-01-31 18:42:00,15.0,13.0,-100.00,WSW,247,9.0,-999.0,94,-99.99,,,-99.99,13.920000,,2013-01-31 23:42:00,
2013-01-31 18:52:00,15.0,13.0,-100.00,WSW,247,9.0,-999.0,94,-99.99,,,-99.99,13.920000,,2013-01-31 23:52:00,
2013-01-31 19:00:00,15.0,13.0,-100.00,WSW,247,9.0,-999.0,95,-99.99,,,-99.99,0.000000,,2013-02-01 00:00:00,
2013-01-31 19:32:00,15.0,13.0,-100.00,WSW,247,9.0,-999.0,95,-99.99,,,-99.99,0.000000,,2013-02-01 00:32:00,
2013-01-31 19:42:00,15.0,13.0,-100.00,WSW,247,9.0,-999.0,95,-99.99,,,-99.99,0.000000,,2013-02-01 00:42:00,
2013-01-31 19:52:00,15.0,13.0,-100.00,WSW,247,9.0,-999.0,95,-99.99,,,-99.99,0.000000,,2013-02-01 00:52:00,
2013-01-31 20:00:00,14.0,13.0,-100.00,WSW,247,11.0,-999.0,96,-99.99,,,-99.99,0.000000,,2013-02-01 01:00:00,
2013-01-31 20:32:00,14.0,13.0,-100.00,WSW,247,11.0,-999.0,96,-99.99,,,-99.99,0.000000,,2013-02-01 01:32:00,
2013-01-31 20:42:00,14.0,13.0,-100.00,WSW,247,11.0,-999.0,96,-99.99,,,-99.99,0.000000,,2013-02-01 01:42:00,
2013-01-31 20:52:00,14.0,13.0,-100.00,WSW,247,11.0,-999.0,96,-99.99,,,-99.99,0.000000,,2013-02-01 01:52:00,
2013-01-31 21:00:00,14.0,13.0,-100.00,WSW,247,9.0,-999.0,96,-99.99,,,-99.99,0.000000,,2013-02-01 02:00:00,
2013-01-31 21:42:00,14.0,13.0,-100.00,WSW,247,9.0,-999.0,96,-99.99,,,-99.99,0.000000,,2013-02-01 02:42:00,
2013-01-31 21:52:00,14.0,13.0,-100.00,WSW,247,9.0,-999.0,96,-99.99,,,-99.99,0.000000,,2013-02-01 02:52:00,
2013-01-31 22:00:00,13.0,12.0,-100.00,WSW,247,10.0,-999.0,95,-99.99,,,-99.99,0.000000,,2013-02-01 03:00:00,
2013-01-31 22:42:00,13.0,12.0,-100.00,WSW,247,10.0,-999.0,95,-99.99,,,-99.99,0.000000,,2013-02-01 03:42:00,
2013-01-31 22:52:00,13.0,12.0,-100.00,WSW,247,10.0,-999.0,95,-99.99,,,-99.99,0.000000,,2013-02-01 03:52:00,
2013-01-31 23:00:00,13.0,12.0,-100.00,WSW,247,9.0,-999.0,95,-99.99,,,-99.99,0.000000,,2013-02-01 04:00:00,
2013-01-31 23:32:00,13.0,12.0,-100.00,WSW,247,9.0,-999.0,95,-99.99,,,-99.99,0.000000,,2013-02-01 04:32:00,
2013-01-31 23:42:00,13.0,12.0,-100.00,WSW,247,9.0,-999.0,95,-99.99,,,-99.99,0.000000,,2013-02-01 04:42:00,
2013-01-31 23:52:00,13.0,12.0,-100.00,WSW,247,9.0,-999.0,95,-99.99,,,-99.99,0.000000,,2013-02-01 04:52:00,